Wind_Speed
13 12 17 18 18 18 14 8 9 12 9 6 7 7 7 9 10 14 11 13 9 12 13 12 13 12 12 11 11 11 11 11 12 11 10 10 11 11 12 12 12 11 11
21 17 16 21 23 26 22 16 11 9 9 11 11 13 13 12 13 14 14 16 14 14 14 14 14 14 16 16 14 16 17 15 16 17 15 14 15 16 17 17 15 14 13
21 20 17 24 21 27 28 14 12 15 15 15 14 15 15 15 17 16 19 19 17 17 17 17 17 17 18 16 17 17 16 16 15 22 17 16 18 18 18 16 16 16 16
20 21 20 13 15 15 11 9 9 15 15 15 15 15 17 15 16 18 18 19 20 19 18 19 19 18 18 18 19 19 17 17 15 15 15 15 16 14 17 14 15 16 16
13 18 19 14 12 14 13 6 10 14 15 15 15 16 17 19 19 19 19 19 21 20 20 22 21 19 15 16 17 17 14 13 12 11 8 10 7 13 17 16 17 18 18
11 13 12 11 9 9 7 11 12 14 15 16 19 21 21 21 21 23 21 21 21 21 24 23 26 20 15 18 18 16 15 12 8 10 5 6 10 12 11 15 19 22 23
9 9 7 9 10 10 9 12 14 14 15 17 18 19 22 20 18 20 22 24 17 19 15 16 15 19 20 21 19 18 17 13 10 10 10 10 14 12 11 13 10 13 19
8 7 8 11 10 10 12 14 14 16 16 18 19 20 20 19 18 16 17 17 13 14 11 17 21 20 20 22 19 17 16 12 15 13 12 13 16 13 13 11 12 10 10
9 5 8 11 11 12 15 14 15 15 15 16 15 15 15 15 14 13 15 10 13 22 15 20 19 21 26 32 15 17 16 17 12 11 13 13 13 12 12 12 12 13 15
5 8 9 11 10 11 12 12 11 11 12 11 12 14 15 15 14 15 16 9 18 15 25 8 16 19 20 17 20 12 9 4 5 7 11 11 11 11 13 12 14 15 16
3 4 5 6 7 9 10 9 8 8 8 9 11 11 12 13 12 12 12 11 11 13 15 16 19 17 18 15 13 16 9 6 6 8 9 11 11 12 12 13 16 18 18
1 3 3 4 5 6 6 5 6 6 7 8 7 8 6 8 9 10 13 14 12 6 11 11 14 14 14 14 15 11 8 7 9 9 9 10 10 11 13 16 18 18 19
1 2 2 2 2 2 3 4 6 6 7 7 6 6 6 6 7 6 9 11 13 8 11 7 7 8 10 9 10 10 9 7 9 11 12 12 12 13 16 17 18 19 21
1 1 1 2 1 2 3 3 4 5 5 5 5 4 4 4 5 6 7 5 4 9 8 8 5 8 9 9 12 13 15 15 18 13 12 12 14 15 16 18 18 18 16
2 1 1 1 2 2 4 3 3 4 4 3 4 3 1 1 2 4 6 6 7 8 6 7 5 3 7 7 6 6 8 10 11 10 12 13 16 16 17 18 18 15 18
3 2 2 1 1 1 2 3 5 5 4 2 2 2 1 1 1 2 4 5 6 6 4 5 6 8 5 6 8 6 6 7 9 11 14 15 15 16 17 15 14 16 17
7 5 2 1 1 1 1 3 5 5 4 4 3 2 1 1 1 1 2 0 3 4 4 4 6 6 7 9 5 4 9 11 12 14 15 15 14 13 13 13 16 17 19
9 6 4 3 1 1 1 2 3 4 5 6 6 6 6 4 3 3 4 3 3 3 4 5 8 5 5 7 5 9 9 13 13 13 13 12 14 12 12 15 16 20 22
8 5 3 2 1 1 1 2 2 3 3 4 5 4 3 3 3 3 3 3 3 4 5 5 5 3 6 7 8 10 12 13 15 13 14 14 12 12 14 19 19 19 18
10 8 4 2 2 2 3 3 4 4 5 5 5 4 4 4 4 3 3 3 4 5 5 6 6 5 8 10 8 14 15 13 15 15 14 12 16 18 18 16 15 16 16
11 11 6 2 2 3 4 4 4 5 5 4 4 4 4 5 5 6 6 6 6 6 6 6 6 5 7 7 10 11 12 13 13 14 15 15 16 16 14 16 16 17 17
8 11 10 5 2 3 4 5 4 4 4 3 2 3 4 6 7 8 9 9 8 9 9 9 8 8 9 9 10 11 12 14 13 14 15 17 17 16 16 18 19 20 19
7 10 10 9 6 3 4 5 5 5 4 4 3 4 5 4 7 9 11 10 10 10 10 10 11 12 12 11 12 13 13 15 15 16 16 18 19 18 18 16 16 17 18
8 10 10 10 8 6 7 5 6 6 6 6 6 8 8 8 9 11 13 11 11 11 13 12 11 11 12 12 12 12 13 14 14 15 14 13 16 15 16 16 14 15 15
9 11 12 10 9 7 7 7 6 8 9 10 10 9 9 9 10 10 13 9 11 11 11 10 10 11 11 12 13 13 13 14 14 10 7 9 14 20 15 14 15 15 16
11 10 13 14 11 8 7 8 8 7 10 11 12 10 11 10 11 13 14 12 11 12 9 11 10 10 12 11 11 11 11 11 13 13 12 14 13 18 18 19 17 17 18
Wind_Direction
252 247 261 255 259 266 261 262 236 193 249 249 255 262 260 254 251 251 239 254 265 267 261 259 259 259 258 256 256 250 249 255 259 256 263 273 278 278 276 271 264 261 260
259 252 256 261 258 256 248 247 268 280 236 253 264 265 259 260 253 254 247 255 268 266 261 259 258 259 255 260 263 258 264 258 268 270 272 279 284 286 287 272 263 261 262
263 246 258 266 258 251 243 244 250 250 263 258 265 263 260 262 260 254 264 269 270 270 266 262 256 250 252 258 262 261 264 271 294 271 274 288 282 281 292 267 259 259 261
257 231 246 272 265 248 244 211 251 255 260 266 266 270 264 269 263 264 263 266 269 273 271 265 264 259 256 260 258 265 273 279 281 295 270 289 279 274 274 266 262 265 267
250 229 247 257 260 272 288 270 263 264 273 268 271 272 269 275 275 267 264 268 269 271 272 271 255 247 250 262 262 264 276 284 289 276 286 307 318 299 272 264 266 264 266
236 236 243 238 253 257 248 251 264 278 278 271 268 269 269 267 268 270 269 271 269 272 275 263 258 257 253 261 262 267 271 280 288 278 297 334 301 320 301 268 278 270 269
198 221 237 242 249 243 254 260 269 272 278 281 279 276 278 278 276 270 272 264 254 282 276 242 246 252 255 261 260 257 256 247 258 267 260 268 281 287 318 309 326 288 271
204 209 233 240 250 266 270 269 273 272 275 277 279 280 279 275 280 275 276 242 234 276 231 227 242 252 258 253 246 239 239 262 258 274 268 269 277 284 295 296 308 299 297
208 224 259 267 268 267 270 275 275 277 277 276 276 275 277 278 277 269 261 245 246 224 229 241 256 272 263 284 246 224 239 249 250 267 274 279 275 276 288 289 287 300 296
271 271 265 267 272 269 269 273 272 272 279 283 283 280 276 274 271 273 259 257 242 224 260 241 263 274 276 300 232 225 259 244 282 286 278 277 266 268 275 286 289 293 301
309 283 279 278 273 269 274 282 284 293 302 307 299 287 277 265 264 258 270 274 267 257 249 264 268 274 274 284 278 267 279 270 284 275 276 277 276 272 275 284 290 299 302
36 346 319 302 293 282 273 271 278 291 304 308 308 292 264 252 253 256 249 247 263 247 238 250 270 280 279 273 279 272 276 268 256 263 278 285 284 277 277 284 288 292 297
48 354 3 353 352 319 284 287 293 298 295 311 320 311 293 254 248 274 264 253 259 240 263 272 274 291 289 292 277 266 261 253 263 273 282 283 282 282 283 285 291 297 301
248 336 359 24 29 302 300 300 294 302 316 290 310 334 316 275 245 226 254 261 252 264 268 266 265 274 262 267 265 263 252 264 272 278 280 282 282 284 287 289 293 295 299
22 300 295 330 348 337 316 318 330 325 329 299 285 278 304 274 235 247 248 260 248 258 261 236 291 278 284 287 294 306 273 260 261 279 286 291 290 291 292 292 295 297 309
39 27 311 308 292 307 327 4 16 9 5 348 321 309 342 359 355 274 253 240 233 232 232 247 266 274 271 302 315 281 269 270 285 288 294 295 294 293 295 293 288 299 314
23 22 1 9 359 329 49 46 24 15 13 21 14 11 39 5 332 353 50 17 228 226 226 254 272 277 275 273 297 276 299 297 294 292 288 292 291 297 295 293 299 308 310
22 13 13 2 7 353 1 27 23 14 16 24 20 26 20 19 357 328 321 309 292 282 270 261 259 253 264 276 274 303 304 295 287 298 309 303 297 299 308 312 306 311 315
27 20 16 353 332 303 295 301 301 320 338 348 345 351 359 7 10 2 355 325 311 300 289 288 299 226 226 312 251 292 295 299 319 319 312 307 309 306 304 301 306 307 310
18 11 8 332 283 258 273 283 296 312 329 335 351 9 17 18 21 19 27 359 339 323 313 305 292 259 256 262 274 281 289 290 308 314 312 320 293 311 308 307 308 308 311
18 9 2 302 293 277 267 273 291 313 321 328 353 10 17 17 13 6 1 354 339 329 320 315 310 300 290 282 283 300 300 301 305 311 313 311 308 312 314 311 311 311 313
7 4 1 331 294 272 268 282 298 298 306 310 327 350 1 1 354 351 344 332 329 331 327 321 312 302 299 300 300 304 305 304 304 314 311 307 309 316 315 313 313 314 313
347 353 17 12 1 333 287 273 277 287 291 300 312 323 328 332 349 349 346 335 331 332 329 322 321 317 311 308 307 309 312 315 319 314 316 317 314 313 315 317 318 315 312
329 336 1 10 352 335 344 291 276 280 281 280 286 300 308 312 331 339 336 327 323 320 326 313 313 309 307 308 309 311 309 305 305 303 307 313 308 312 322 322 316 313 314
308 323 338 351 343 327 330 337 300 281 277 279 279 286 295 296 306 319 329 315 319 322 323 321 307 307 304 301 300 300 293 290 292 292 281 291 305 304 311 318 325 326 328
288 318 328 333 329 317 317 327 314 301 279 274 276 286 297 284 304 311 329 315 309 313 309 307 303 297 295 295 293 291 294 296 289 293 310 296 289 293 313 324 320 324 327
Height
3191 3192 3193 3197 3200 3201 3201 3199 3200 3201 3199 3204 3205 3205 3205 3205 3207 3207 3209 3210 3210 3211 3213 3214 3215 3215 3216 3216 3217 3217 3217 3217 3217 3217 3217 3218 3218 3218 3219 3219 3219 3220 3220
3185 3186 3190 3194 3199 3197 3199 3197 3197 3195 3202 3203 3203 3203 3203 3203 3204 3204 3205 3206 3208 3209 3210 3211 3212 3213 3214 3214 3215 3215 3215 3214 3215 3216 3216 3216 3216 3216 3216 3216 3216 3217 3218
3180 3182 3187 3191 3194 3192 3192 3196 3197 3198 3199 3201 3200 3200 3200 3200 3202 3203 3203 3202 3205 3207 3208 3209 3209 3209 3211 3211 3212 3211 3212 3213 3214 3213 3214 3214 3214 3213 3212 3212 3213 3213 3214
3174 3178 3183 3187 3187 3188 3190 3188 3192 3195 3197 3196 3195 3196 3196 3197 3198 3199 3201 3201 3202 3203 3205 3205 3206 3207 3207 3207 3209 3209 3210 3211 3211 3212 3211 3210 3210 3209 3208 3208 3208 3210 3211
3171 3175 3181 3184 3185 3184 3182 3185 3191 3193 3192 3191 3191 3192 3193 3193 3194 3195 3197 3197 3197 3198 3199 3201 3202 3202 3203 3204 3205 3207 3208 3208 3208 3209 3209 3209 3207 3205 3203 3204 3204 3205 3207
3170 3175 3179 3182 3184 3184 3184 3186 3187 3188 3187 3187 3186 3188 3189 3189 3189 3190 3191 3191 3192 3193 3194 3196 3195 3196 3200 3201 3202 3204 3205 3206 3206 3205 3205 3205 3203 3202 3200 3200 3200 3201 3202
3171 3174 3177 3180 3183 3183 3184 3185 3185 3184 3184 3184 3184 3184 3183 3183 3184 3185 3185 3185 3188 3189 3188 3188 3194 3195 3196 3197 3198 3199 3201 3202 3202 3202 3202 3201 3200 3200 3199 3198 3197 3197 3198
3171 3173 3175 3175 3178 3179 3181 3180 3180 3181 3180 3181 3180 3178 3178 3179 3179 3180 3178 3180 3182 3183 3186 3183 3187 3190 3192 3193 3190 3193 3194 3195 3196 3198 3198 3197 3196 3196 3194 3195 3195 3194 3193
3172 3171 3174 3175 3176 3177 3177 3177 3178 3178 3177 3177 3176 3175 3174 3174 3175 3175 3175 3175 3177 3178 3178 3181 3184 3187 3186 3181 3167 3184 3188 3189 3191 3193 3193 3193 3192 3192 3191 3191 3191 3190 3189
3172 3171 3173 3173 3174 3174 3175 3175 3175 3175 3174 3173 3172 3170 3170 3171 3172 3171 3160 3171 3170 3172 3175 3174 3181 3183 3182 3178 3157 3179 3182 3185 3187 3189 3190 3190 3189 3189 3188 3187 3187 3186 3185
3169 3170 3170 3171 3171 3172 3172 3173 3172 3172 3171 3170 3168 3168 3168 3169 3170 3170 3169 3171 3171 3172 3176 3177 3177 3179 3179 3180 3180 3182 3182 3183 3185 3187 3187 3187 3186 3186 3185 3184 3183 3181 3180
3169 3169 3169 3169 3169 3170 3170 3170 3170 3170 3170 3169 3167 3166 3166 3168 3169 3169 3169 3170 3169 3170 3175 3177 3176 3176 3176 3177 3178 3179 3180 3181 3183 3185 3184 3184 3183 3182 3182 3181 3179 3178 3176
3169 3168 3168 3167 3168 3169 3169 3169 3169 3169 3169 3167 3166 3165 3165 3165 3167 3168 3168 3166 3170 3165 3173 3175 3175 3174 3174 3175 3175 3176 3178 3179 3181 3181 3181 3180 3179 3179 3178 3176 3175 3173 3171
3168 3167 3168 3167 3167 3168 3168 3168 3168 3168 3167 3166 3165 3165 3164 3165 3165 3164 3164 3166 3167 3169 3171 3171 3171 3172 3172 3173 3173 3174 3175 3175 3176 3177 3176 3176 3176 3175 3173 3172 3170 3169 3167
3170 3168 3168 3168 3168 3168 3168 3168 3168 3166 3166 3165 3165 3165 3164 3164 3163 3164 3164 3166 3167 3168 3169 3170 3169 3169 3171 3172 3172 3170 3169 3171 3173 3174 3173 3172 3172 3170 3169 3167 3166 3164 3162
3170 3169 3169 3168 3168 3168 3167 3167 3167 3166 3166 3166 3166 3165 3164 3164 3164 3164 3164 3164 3165 3166 3167 3168 3169 3169 3169 3169 3169 3169 3168 3170 3169 3170 3170 3169 3168 3166 3165 3163 3162 3160 3158
3170 3169 3168 3167 3168 3168 3168 3168 3168 3168 3168 3167 3166 3166 3165 3164 3164 3164 3163 3163 3164 3165 3165 3167 3167 3167 3168 3168 3169 3168 3169 3168 3167 3167 3167 3165 3163 3162 3161 3160 3158 3157 3155
3170 3169 3169 3169 3168 3169 3169 3169 3168 3169 3168 3167 3166 3165 3165 3165 3164 3164 3163 3163 3164 3164 3165 3165 3165 3166 3166 3167 3166 3167 3166 3165 3165 3164 3162 3161 3160 3158 3158 3156 3155 3153 3150
3170 3169 3168 3168 3168 3168 3168 3169 3169 3168 3168 3167 3166 3165 3164 3163 3163 3163 3163 3162 3162 3163 3163 3163 3162 3162 3163 3163 3163 3164 3163 3163 3161 3159 3158 3157 3156 3155 3154 3152 3150 3148 3146
3170 3169 3167 3168 3167 3168 3168 3168 3168 3168 3168 3167 3165 3164 3164 3163 3163 3163 3163 3162 3162 3162 3161 3161 3160 3160 3160 3160 3161 3160 3159 3159 3157 3156 3155 3153 3152 3151 3150 3148 3146 3144 3142
3169 3168 3167 3167 3167 3167 3167 3167 3167 3166 3167 3166 3166 3165 3165 3164 3163 3163 3162 3162 3162 3161 3160 3159 3159 3158 3158 3157 3157 3156 3156 3155 3154 3153 3151 3149 3148 3147 3145 3143 3141 3139 3137
3170 3169 3167 3166 3166 3165 3166 3166 3166 3165 3165 3165 3165 3164 3164 3163 3163 3162 3162 3161 3161 3160 3159 3158 3156 3156 3155 3155 3154 3154 3152 3151 3151 3149 3147 3145 3143 3143 3142 3139 3137 3135 3133
3169 3168 3167 3166 3165 3165 3164 3164 3164 3164 3163 3164 3164 3164 3163 3162 3161 3160 3160 3159 3158 3157 3157 3156 3154 3153 3152 3152 3151 3150 3148 3146 3146 3145 3143 3141 3139 3139 3137 3136 3133 3131 3129
3167 3166 3166 3165 3164 3164 3163 3162 3162 3162 3162 3162 3162 3162 3162 3161 3160 3159 3159 3158 3157 3156 3154 3152 3152 3151 3150 3148 3147 3147 3145 3144 3143 3142 3141 3139 3136 3135 3135 3132 3130 3128 3126
3165 3165 3163 3163 3162 3162 3161 3160 3159 3160 3159 3160 3160 3160 3160 3159 3158 3158 3156 3155 3154 3153 3151 3150 3149 3148 3147 3146 3145 3144 3143 3141 3139 3139 3138 3137 3135 3132 3131 3129 3127 3125 3122
3162 3162 3161 3161 3160 3159 3159 3159 3158 3157 3157 3157 3156 3156 3156 3156 3155 3154 3153 3152 3152 3151 3149 3147 3146 3144 3143 3142 3141 3140 3139 3138 3135 3135 3135 3134 3132 3129 3125 3124 3124 3121 3119